Torna al catalogo

COSMOS 1579 COOLANT

LostLEO
NORAD 27913·DEBRIS·🇷🇺 Russia

Lanciato Jun 29, 1984 da Baikonur Cosmodrome

Loading…

Prossimi Passaggi (prossime 24 ore)

TLE

ObsoletoSource: Space-Track

Epoca: Oct 18, 2018, 19:16 UTC

1 27913U 84069AF  18291.80324124 -.00000028  00000-0  48736-4 0  9997
2 27913  65.0466 356.9366 0062275 261.0260  98.3783 13.90747343794546

Traccia COSMOS 1579 COOLANT in tempo reale con AllMySat

Download on the App Store